Regional Weather Roundup
Issued by NWS

Home | Current Version | Previous Version | Text Only | Print | Product List | Glossary Off
Versions: 1 2 3 4 5 6 7 8 9 10 11 12 13 14 15 16 17 18 19 20 21 22 23 24 25 26 27 28 29 30 31 32 33 34 35 36 37 38 39 40 41 42 43 44 45 46 47 48 49 50

000
ASUS44 KMEG 290110
RWRTN
TENNESSEE HOURLY STATE WEATHER ROUNDUP
NATIONAL WEATHER SERVICE MEMPHIS TN
800 PM CDT THU APR 28 2016

TNZ002-004-019-021-049-052-054-088>092-290200-
WEST TENNESSEE

CITY           SKY/WX    TMP DP  RH WIND       PRES   REMARKS
MEMPHIS INTL   PTCLDY    77  52  41 CALM      29.95R
NWS MEMPHIS      N/A     72 N/A N/A MISG        N/A
JACKSON        CLEAR     72  54  53 CALM      29.95R
DYERSBURG      CLEAR     73  46  38 N3        29.96R
UNION CITY     CLEAR     73  48  40 CALM      29.95R
LEXINGTON      CLEAR     68  59  73 CALM      29.96R
$$

TNZ008-025-027-028-033-062-065-066-290200-
NORTH MIDDLE TENNESSEE

CITY           SKY/WX    TMP DP  RH WIND       PRES   REMARKS
NASHVILLE      CLEAR     76  50  40 W6        29.95R
CLARKSVILLE    CLEAR     71  48  43 W6        29.95R
SMYRNA         CLEAR     73  55  53 W6        29.95R
COOKEVILLE     CLEAR     66  57  72 CALM      29.95R
CROSSVILLE     CLEAR     70  57  63 W5        29.99R
$$

TNZ061-075-076-078-094-096-097-290200-
SOUTH MIDDLE TENNESSEE

CITY           SKY/WX    TMP DP  RH WIND       PRES   REMARKS
FAYETTEVILLE   CLEAR     75  54  46 CALM      29.96R
TULLAHOMA      CLEAR     70  55  60 CALM      29.98R
WINCHESTER     CLEAR     73  59  60 CALM      29.96R
MCMINNVILLE    CLEAR     72  55  56 W5        29.96R
COLUMBIA       CLEAR     75  57  53 CALM      29.95R
SHELBYVILLE    CLEAR     73  57  56 CALM      29.96R
$$

TNZ017-018-042-046-047-290200-
NORTHEAST TENNESSEE

CITY           SKY/WX    TMP DP  RH WIND       PRES   REMARKS
TRI CITIES     PTCLDY    69  54  58 SW7       29.92R
$$

TNZ012-013-036-069-073-074-290200-
CENTRAL EAST TENNESSEE

CITY           SKY/WX    TMP DP  RH WIND       PRES   REMARKS
KNOXVILLE      PTCLDY    75  58  55 W8        29.91R
OAK RIDGE      CLEAR     75  57  53 CALM      29.93R
GATLINBURG     CLEAR     72  55  56 CALM      29.91R
MORRISTOWN     CLEAR     73  57  56 SW5       29.91S
$$

TNZ083-085-099-290200-
SOUTHEAST TENNESSEE

CITY           SKY/WX    TMP DP  RH WIND       PRES   REMARKS
CHATTANOOGA    PTCLDY    77  54  44 W5        29.93R
$$

SKY/WX REPORTED AS FAIR MEANS FEW OR NO CLOUDS BELOW
12 THOUSAND FEET.




USA.gov is the U.S. government's official web portal to all federal, state and local government web resources and services.